User: anonymous   Login
Location: Unspecified
(0.0000°N, 0.0000°E)
Time: 17:45:56
(UTC+00:00)
Language:

SICRAL 1B - Orbit

View from above orbital plane
View from above orbital plane
View from above satellite
View from above satellite

Ground track
Ground track

The orbit data is extracted from the following two-line orbital elements,

1 34810U 09020A   15074.70781271 0.00000000  00000-0  00000-0 0    00
2 34810   0.0948  79.7381 0003425  41.8679 318.1820  1.00270000    06
Epoch (UTC): 15 March 2015 16:59:15
Eccentricity: 0.0003425
inclination: 0.0948°
perigee height: 35772 km
apogee height: 35801 km
right ascension of ascending node: 79.7381°
argument of perigee: 41.8679°
revolutions per day: 1.00270000
mean anomaly at epoch: 318.1820°
orbit number at epoch: 0

The dashed part of the orbit path shows where the satellite is in the earth's shadow,  

DLR